Weather in Shebalino

Russia / Volgograd Oblast     48°16′32″N   43°21′11″E
temp.,
°C
wind,
m/s
gust,
m/s
humid.,
%
clouds,
%
prec.,
mm/h
press.,
hPa
HPBL,
m
6 may, thu
thu600:00+10s33566 0.0 101826
03:00+10se22555 0.0 101815
06:00+10se46595 0.0 1018119
09:00+16sse56455 0.0 1018889
12:00+19sse563798 0.0 10161855
15:00+20sse5636100 0.0 10151971
18:00+18sse3647100 0.0 1015142
21:00+14se4755100 0.0 1015107
7 may, fri
fri700:00+13se4757100 0.0 101498
03:00+12sse51161100 0.0 1015251
06:00+12s5116562 0.0 1015283
09:00+16s6849100 0.0 1015678
12:00+18ssw6746100 0.0 10161101
15:00+19sw4554100 0.0 1015994
18:00+18sw4657100 0.0 1015309
21:00+16nnw5870100 0.0 1016184
8 may, sat
sat800:00+13n47847 0.0 1017137
03:00+12ne3390100 0.0 101743
06:00+13ene2283100 0.0 101771
09:00+18sse235991 0.0 1016639
12:00+21sw3446100 0.0 10151328
15:00+21sw454563 0.0 10141203
18:00+21ssw365312 0.0 1013281
21:00+17sse346456 0.0 101241
9 may, sun
sun900:00+17se51260100 0.0 1011252
03:00+16sse61258100 0.0 1010259
06:00+14sse41057100 0.0 1010323
09:00+15s5858100 0.0 1010490
12:00+16ssw4563100 0.1 1011664
15:00+16sse4675100 0.4 1010694
18:00+14nw5588100 0.3 1010276
21:00+8nw91189100 0.9 1013495
10 may, mon
mon1000:00+8nw81091100 2.4 1014556
03:00+8nw6791100 3.5 1013555
06:00+8wnw6791100 0.2 1013480
09:00+8wsw6692100 0.8 1013466
12:00+9sw5690100 1.1 1014522
15:00+10ssw6789100 2.1 1015644
18:00+9s3484100 0.9 1016448
21:00+7s2393100 3.4 1017206